Regional Weather Roundup
Issued by NWS

Home | Current Version | Previous Version | Text Only | Print | Product List | Glossary Off
Versions: 1 2 3 4 5 6 7 8 9 10 11 12 13 14 15 16 17 18 19 20 21 22 23 24 25 26 27 28 29 30 31 32 33 34 35 36 37 38 39 40 41 42 43 44 45 46 47 48 49 50

228
ASUS43 KDMX 260201
RWRIA

WEATHER ROUNDUP FOR IOWA
NATIONAL WEATHER SERVICE DES MOINES IA
800 PM CST SAT FEB 25 2017

NOTE: "FAIR" INDICATES FEW OR NO CLOUDS BELOW 12,000 FEET WITH NO
SIGNIFICANT WEATHER AND/OR OBSTRUCTIONS TO VISIBILITY.

* - THESE STATIONS ARE NOT NWS STATIONS...THUS NOT UNDER NWS
QUALITY CONTROL.  THEY ALSO DO NOT REPORT WEATHER SUCH
AS PRECIPITATION OR FOG.

IAZ001>003-012>014-020>022-031>034-043>046-260300-
   NORTHWEST IOWA

CITY           SKY/WX    TMP DP  RH WIND       PRES   REMARKS
CARROLL *      CLOUDY    23  19  86 S10       29.94F WCI  12
CHEROKEE *     CLEAR     21  13  70 S8        29.89F WCI  11
DENISON *      CLOUDY    27  19  74 S8        29.90F WCI  18
LE MARS *      CLEAR     23  16  74 S13       29.87F WCI  11
SHELDON *      CLOUDY    21  21 100 S13       29.85F WCI   9
SIOUX CITY     CLEAR     23  15  71 SE10      29.88F WCI  12
SPENCER        CLEAR     18  12  77 S12       29.88F WCI   5
STORM LAKE *   PTCLDY    19  16  86 S14       29.89F WCI   6
$$

IAZ055>058-069>071-079>083-090>094-260300-
   SOUTHWEST IOWA

CITY           SKY/WX    TMP DP  RH WIND       PRES   REMARKS
ATLANTIC *     CLOUDY    30  21  69 S10       29.95F WCI  21
AUDUBON *      MOCLDY    27  19  74 S5        29.94F WCI  21
CLARINDA *     CLOUDY    32  21  64 S7        30.01F WCI  26
COUNCIL BLFS * MOCLDY    30  23  74 S10       29.93F WCI  21
CRESTON *      CLOUDY    27  19  74 S10       29.99F WCI  17
HARLAN  *      CLOUDY    28  23  80 S6        29.96F WCI  22
LAMONI         CLOUDY    30  17  58 S7        30.01F WCI  23
RED OAK *      CLOUDY    32  23  69 S9        29.96F WCI  24
SHENANDOAH *   CLOUDY    32  25  74 SE8       29.97F WCI  25
$$

IAZ047>049-059>061-072>074-084-260300-
   CENTRAL IOWA

CITY           SKY/WX    TMP DP  RH WIND       PRES   REMARKS
AMES           CLOUDY    22  20  92 S5        29.99F WCI  16
ANKENY *       CLOUDY    30  19  64 S6        30.01F WCI  24
BOONE *        CLOUDY    25  18  74 S6        29.96F WCI  18
CHARITON *     CLOUDY    27  19  74 S6        30.02S WCI  20
DES MOINES     PTCLDY    29  18  63 S7        30.00F WCI  22
GRINNELL*      CLOUDY    27  21  79 S5        30.02F WCI  21
KNOXVILLE *    CLOUDY    28  18  64 S6        30.01S WCI  22
MARSHALLTOWN   CLOUDY    23  17  78 S5        29.99F WCI  17
NEWTON *       CLOUDY    27  21  80 S7        30.00F WCI  19
PELLA *        PTCLDY    29  20  68 S5        30.03F WCI  24
PERRY *          N/A     24  21  87 SE7       29.97F WCI  16
$$

IAZ004>006-015-016-023>025-035-036-260300-
   NORTH CENTRAL IOWA

CITY           SKY/WX    TMP DP  RH WIND       PRES   REMARKS
ALGONA *       LGT SNOW  21  18  86 S14       29.91F VSB 1   WCI   8
CLARION *      CLOUDY    21  16  79 S7        29.94F WCI  13
ESTHERVILLE    CLOUDY    18  15  88 S13       29.87F WCI   5
FORT DODGE *   CLOUDY    25  16  68 S9        29.95F WCI  15
MASON CITY     MOCLDY    20  13  74 S10       29.94F WCI   9
FOREST CITY *  MOCLDY    19  14  79 S10       29.92F WCI   8
WEBSTER CITY * CLOUDY    23  16  74 S12       29.94F WCI  12
IOWA FALLS *   CLOUDY    23  18  83 S9        29.97F WCI  13
$$

IAZ007>011-017>019-026>030-037>042-050>054-066-260300-
   NORTHEAST IOWA

CITY           SKY/WX    TMP DP  RH WIND       PRES   REMARKS
CEDAR RAPIDS   MOCLDY    22  16  78 SW5       30.02F WCI  16
CHARLES CITY * CLOUDY    19  16  86 S8        29.97F WCI   9
CLINTON *      CLOUDY    24  20  84 W10       30.05R WCI  14
DECORAH *      MOCLDY    19  14  79 SW6       29.96S WCI  11
DUBUQUE        CLEAR     19  14  81 SW7       30.01R WCI  10
MONTICELLO *   CLEAR     23  16  74 SW5       30.03S WCI  17
OELWEIN *      MOCLDY    21  18  86 SW8       29.99F WCI  12
WATERLOO       CLOUDY    24  16  71 SW8       30.00F WCI  15
$$

IAZ064-065-067-068-078-260300-
   EAST CENTRAL IOWA

CITY           SKY/WX    TMP DP  RH WIND       PRES   REMARKS
DAVENPORT      CLOUDY    26  18  71 W8        30.05S WCI  18
IOWA CITY      MOCLDY    26  16  65 CALM      30.07S
MUSCATINE *    PTCLDY    28  16  59 SW5       30.08S WCI  23
QUAD CITIES    CLOUDY    27  16  63 W8        30.06R WCI  19
$$

IAZ062-063-075>077-085>089-095>099-260300-
   SOUTHEAST IOWA

CITY           SKY/WX    TMP DP  RH WIND       PRES   REMARKS
BURLINGTON     MOCLDY    26  18  71 CALM      30.07S
FAIRFIELD *    CLOUDY    28  16  59 S5        30.05S WCI  23
KEOKUK *       PTCLDY    28  12  50 CALM      30.07F
CENTERVILLE *    N/A     27  16  63 CALM      30.05S
OTTUMWA        MOCLDY    25  18  74 S6        30.03F WCI  18
WASHINGTON *   CLOUDY    25  19  80 CALM      30.06F
$$

ABBREVIATIONS USED IN REMARKS
   TC - TEMPERATURES IN CELSIUS
  WCI - WIND CHILL INDEX
   HX - HEAT INDEX
  VSB - VISIBILITY
$$





USA.gov is the U.S. government's official web portal to all federal, state and local government web resources and services.